User: anonymous   Login
Location: Unspecified
(0.0000°N, 0.0000°E)
Time: 07:21:09
(UTC+00:00)
Language:

Tiros 1 - Orbit

View from above orbital plane
View from above orbital plane
View from above satellite
View from above satellite

Ground track
Ground track

The orbit data is extracted from the following two-line orbital elements,

1    29U 60002B   20094.03635461 -.00000090  00000-0  17534-4 0  9996
2    29  48.3798 304.5339 0024498 269.9204  89.8901 14.74348392207535
Epoch (UTC): 03 April 2020 00:52:21
Eccentricity: 0.0024498
inclination: 48.3798°
perigee height: 630 km
apogee height: 664 km
right ascension of ascending node: 304.5339°
argument of perigee: 269.9204°
revolutions per day: 14.74348392
mean anomaly at epoch: 89.8901°
orbit number at epoch: 20753

The dashed part of the orbit path shows where the satellite is in the earth's shadow,  

DLR